W9IF-4 Weather Reports


Display with metric or nautical units.
time (UTC)temp
F
wind
direction
speed
MPH
gust
MPH
rain 1hr
in
rain 24hr
in
rain mn
in
humidity
%
barometer
mb
20141021020950 67 307 4.0 0.0 0.00 0.00 0.00 1015.6
20141021020850 67 285 5.0 0.0 0.00 0.00 0.00 1015.6
20141021020750 67 257 0.0 0.0 0.00 0.00 0.00 1015.6
20141021020650 67 285 7.0 0.0 0.00 0.00 0.00 1015.6
20141021020550 67 281 6.0 0.0 0.00 0.00 0.00 1015.6
20141021020350 67 287 3.0 0.0 0.00 0.00 0.00 1015.6
20141021020250 67 287 7.0 0.0 0.00 0.00 0.00 1015.6
20141021020150 67 311 10.0 0.0 0.00 0.00 0.00 1015.6
20141021015950 67 284 7.0 0.0 0.00 0.00 0.00 1015.7
20141021015850 67 301 0.0 0.0 0.00 0.00 0.00 1015.6
20141021015750 67 280 6.0 0.0 0.00 0.00 0.00 1015.6
20141021015650 67 287 5.0 0.0 0.00 0.00 0.00 1015.6
20141021015550 67 291 6.0 0.0 0.00 0.00 0.00 1015.5
20141021015350 66 295 7.0 0.0 0.00 0.00 0.00 1015.5
20141021015250 66 295 0.0 0.0 0.00 0.00 0.00 1015.5
20141021015150 67 295 6.0 0.0 0.00 0.00 0.00 1015.5
20141021015050 67 287 8.0 0.0 0.00 0.00 0.00 1015.5
20141021014950 67 285 8.0 0.0 0.00 0.00 0.00 1015.5
20141021014850 67 291 5.0 0.0 0.00 0.00 0.00 1015.5
20141021014750 67 294 7.0 0.0 0.00 0.00 0.00 1015.5
20141021014650 67 297 0.0 0.0 0.00 0.00 0.00 1015.5
20141021014550 67 300 6.0 0.0 0.00 0.00 0.00 1015.5
20141021014450 67 295 6.0 0.0 0.00 0.00 0.00 1015.5
20141021014350 67 294 7.0 0.0 0.00 0.00 0.00 1015.4
20141021014250 66 312 7.0 0.0 0.00 0.00 0.00 1015.4
20141021014150 67 300 4.0 0.0 0.00 0.00 0.00 1015.4
20141021014050 67 311 7.0 0.0 0.00 0.00 0.00 1015.3
20141021013950 67 304 6.0 0.0 0.00 0.00 0.00 1015.3
20141021013850 66 298 7.0 0.0 0.00 0.00 0.00 1015.3
20141021013750 66 309 8.0 0.0 0.00 0.00 0.00 1015.3
20141021013650 66 288 0.0 0.0 0.00 0.00 0.00 1015.3
20141021013550 67 304 6.0 0.0 0.00 0.00 0.00 1015.3
20141021013450 67 301 6.0 0.0 0.00 0.00 0.00 1015.3
20141021013350 66 307 7.0 0.0 0.00 0.00 0.00 1015.3
20141021013250 67 309 8.0 0.0 0.00 0.00 0.00 1015.2
20141021013150 67 312 6.0 0.0 0.00 0.00 0.00 1015.2
20141021013050 67 309 8.0 0.0 0.00 0.00 0.00 1015.2
20141021012850 67 308 6.0 0.0 0.00 0.00 0.00 1015.2
20141021012750 67 312 7.0 0.0 0.00 0.00 0.00 1015.2
20141021012649 67 309 7.0 0.0 0.00 0.00 0.00 1015.2
20141021012550 67 304 5.0 0.0 0.00 0.00 0.00 1015.2
20141021012449 67 321 5.0 0.0 0.00 0.00 0.00 1015.2
20141021012249 66 312 7.0 0.0 0.00 0.00 0.00 1015.2
20141021012150 66 307 7.0 0.0 0.00 0.00 0.00 1015.2
20141021012049 67 314 8.0 0.0 0.00 0.00 0.00 1015.2
20141021011950 67 307 5.0 0.0 0.00 0.00 0.00 1015.2
20141021011850 67 298 7.0 0.0 0.00 0.00 0.00 1015.2
20141021011749 67 278 0.0 0.0 0.00 0.00 0.00 1015.2
20141021011649 66 278 4.0 0.0 0.00 0.00 0.00 1015.2
20141021011549 67 294 8.0 0.0 0.00 0.00 0.00 1015.2
20141021011450 67 270 5.0 0.0 0.00 0.00 0.00 1015.2
20141021011250 67 295 6.0 0.0 0.00 0.00 0.00 1015.2
20141021011049 67 295 6.0 0.0 0.00 0.00 0.00 1015.2
20141021010949 67 311 7.0 0.0 0.00 0.00 0.00 1015.1
20141021010849 67 267 0.0 0.0 0.00 0.00 0.00 1015.1
20141021010749 67 319 4.0 0.0 0.00 0.00 0.00 1015.1
20141021010649 67 287 7.0 0.0 0.00 0.00 0.00 1015.1
20141021010549 67 295 4.0 0.0 0.00 0.00 0.00 1015.1
20141021010449 67 297 9.0 0.0 0.00 0.00 0.00 1015.1
20141021010349 67 307 7.0 0.0 0.00 0.00 0.00 1015.1
20141021010149 67 309 8.0 0.0 0.00 0.00 0.00 1015.1
20141021010049 68 305 8.0 0.0 0.00 0.00 0.00 1015.1
20141021005949 67 285 8.0 0.0 0.00 0.00 0.00 1015.1
20141021005849 68 291 7.0 0.0 0.00 0.00 0.00 1015.1
20141021005750 68 267 7.0 0.0 0.00 0.00 0.00 1015.1
20141021005649 68 284 8.0 0.0 0.00 0.00 0.00 1015.1
20141021005549 68 285 9.0 0.0 0.00 0.00 0.00 1015.1
20141021005349 68 301 5.0 0.0 0.00 0.00 0.00 1015.1
20141021005250 68 291 7.0 0.0 0.00 0.00 0.00 1015.1
20141021005149 68 281 8.0 0.0 0.00 0.00 0.00 1015.1
20141021004850 68 285 6.0 0.0 0.00 0.00 0.00 1015.1
20141021004749 68 277 8.0 0.0 0.00 0.00 0.00 1015.1
20141021004649 68 276 9.0 0.0 0.00 0.00 0.00 1015.1
20141021004550 68 300 4.0 0.0 0.00 0.00 0.00 1015.1
20141021004350 69 304 9.0 0.0 0.00 0.00 0.00 1015.1
20141021004149 69 294 8.0 0.0 0.00 0.00 0.00 1015.1
20141021003949 69 285 8.0 0.0 0.00 0.00 0.00 1015.0
20141021003850 69 284 9.0 0.0 0.00 0.00 0.00 1015.0
20141021003749 69 297 6.0 0.0 0.00 0.00 0.00 1015.0
20141021003650 70 264 8.0 0.0 0.00 0.00 0.00 1015.0
20141021003549 69 284 6.0 0.0 0.00 0.00 0.00 1015.0
20141021003449 70 293 3.0 0.0 0.00 0.00 0.00 1015.0
20141021003249 69 304 7.0 0.0 0.00 0.00 0.00 1015.0
20141021003149 70 300 10.0 0.0 0.00 0.00 0.00 1015.0
20141021003049 70 273 10.0 0.0 0.00 0.00 0.00 1015.0
20141021002949 70 288 9.0 0.0 0.00 0.00 0.00 1015.0
20141021002849 70 276 11.0 0.0 0.00 0.00 0.00 1015.0
20141021002649 70 307 6.0 0.0 0.00 0.00 0.00 1015.0
20141021002549 71 295 8.0 0.0 0.00 0.00 0.00 1015.0
20141021002449 71 294 11.0 0.0 0.00 0.00 0.00 1015.0
20141021002349 71 321 7.0 0.0 0.00 0.00 0.00 1015.0
20141021002249 71 319 8.0 0.0 0.00 0.00 0.00 1015.0
20141021002149 72 270 10.0 0.0 0.00 0.00 0.00 1015.0
20141021002049 72 277 9.0 0.0 0.00 0.00 0.00 1014.9
20141021001949 73 280 9.0 0.0 0.00 0.00 0.00 1015.0
20141021001849 74 287 6.0 0.0 0.00 0.00 0.00 1015.0
20141021001749 74 290 10.0 0.0 0.00 0.00 0.00 1015.0
20141021001649 75 288 9.0 0.0 0.00 0.00 0.00 1014.9
20141021001549 74 278 10.0 0.0 0.00 0.00 0.00 1014.9
20141021001349 75 284 10.0 0.0 0.00 0.00 0.00 1014.9
20141021001250 75 278 10.0 0.0 0.00 0.00 0.00 1014.9
20141021001149 74 288 11.0 0.0 0.00 0.00 0.00 1014.9
20141021001049 74 287 10.0 0.0 0.00 0.00 0.00 1014.9
20141021000949 74 278 9.0 0.0 0.00 0.00 0.00 1014.9
20141021000849 75 283 11.0 0.0 0.00 0.00 0.00 1015.0
20141021000649 76 283 11.0 0.0 0.00 0.00 0.00 1015.0
20141021000452 76 271 11.0 0.0 0.00 0.00 0.00 1015.0
20141021000349 76 287 13.0 0.0 0.00 0.00 0.00 1015.0
20141021000249 76 300 9.0 0.0 0.00 0.00 0.00 1015.0
20141021000149 75 278 10.0 0.0 0.00 0.00 0.00 1015.0
20141021000049 74 283 13.0 0.0 0.00 0.00 0.00 1015.0
20141020235849 72 280 13.0 0.0 0.00 0.00 0.00 1015.0
20141020235749 72 267 10.0 0.0 0.00 0.00 0.00 1015.0
20141020235649 73 293 12.0 0.0 0.00 0.00 0.00 1015.0
20141020235449 72 280 7.0 0.0 0.00 0.00 0.00 1015.0
20141020235349 72 269 9.0 0.0 0.00 0.00 0.00 1015.0
20141020235249 73 284 11.0 0.0 0.00 0.00 0.00 1015.0
20141020235150 72 243 7.0 0.0 0.00 0.00 0.00 1015.0
20141020234849 73 287 9.0 0.0 0.00 0.00 0.00 1015.0
20141020234749 73 285 11.0 0.0 0.00 0.00 0.00 1015.0
20141020234649 73 262 6.0 0.0 0.00 0.00 0.00 1015.1
20141020234549 73 267 9.0 0.0 0.00 0.00 0.00 1015.1
20141020234450 73 288 10.0 0.0 0.00 0.00 0.00 1015.1
20141020234349 73 269 10.0 0.0 0.00 0.00 0.00 1015.0
20141020234250 72 267 11.0 0.0 0.00 0.00 0.00 1015.1
20141020234149 72 285 10.0 0.0 0.00 0.00 0.00 1015.0
20141020234049 72 246 7.0 0.0 0.00 0.00 0.00 1015.0
20141020233949 72 262 7.0 0.0 0.00 0.00 0.00 1015.0
20141020233849 72 288 9.0 0.0 0.00 0.00 0.00 1015.0
20141020233750 72 284 11.0 0.0 0.00 0.00 0.00 1015.0
20141020233649 72 283 14.0 0.0 0.00 0.00 0.00 1015.0
20141020233549 72 287 12.0 0.0 0.00 0.00 0.00 1015.0
20141020233449 72 276 9.0 0.0 0.00 0.00 0.00 1015.0
20141020233349 72 249 10.0 0.0 0.00 0.00 0.00 1015.0
20141020233249 72 271 11.0 0.0 0.00 0.00 0.00 1015.0
20141020233049 72 226 9.0 0.0 0.00 0.00 0.00 1015.0
20141020232949 72 264 10.0 0.0 0.00 0.00 0.00 1014.9
20141020232849 72 274 9.0 0.0 0.00 0.00 0.00 1015.0
20141020232749 72 269 12.0 0.0 0.00 0.00 0.00 1015.0
20141020232649 72 277 10.0 0.0 0.00 0.00 0.00 1014.9
20141020232549 72 250 8.0 0.0 0.00 0.00 0.00 1015.0
20141020232449 72 291 9.0 0.0 0.00 0.00 0.00 1015.0
20141020232349 73 270 8.0 0.0 0.00 0.00 0.00 1015.0
20141020232250 72 301 7.0 0.0 0.00 0.00 0.00 1015.0
20141020232149 72 285 12.0 0.0 0.00 0.00 0.00 1015.0
20141020232049 73 287 10.0 0.0 0.00 0.00 0.00 1015.0
20141020231949 73 288 8.0 0.0 0.00 0.00 0.00 1015.0
20141020231849 73 273 10.0 0.0 0.00 0.00 0.00 1015.0
20141020231549 73 267 9.0 0.0 0.00 0.00 0.00 1015.0
20141020231449 73 281 13.0 0.0 0.00 0.00 0.00 1015.0
20141020231349 73 266 11.0 0.0 0.00 0.00 0.00 1015.0
20141020231149 73 304 7.0 0.0 0.00 0.00 0.00 1015.0
20141020231049 73 271 6.0 0.0 0.00 0.00 0.00 1015.0
20141020230949 73 285 9.0 0.0 0.00 0.00 0.00 1015.0
20141020230849 74 280 9.0 0.0 0.00 0.00 0.00 1015.0
20141020230749 74 250 9.0 0.0 0.00 0.00 0.00 1015.0
20141020230649 74 271 10.0 0.0 0.00 0.00 0.00 1015.0
20141020230549 74 243 8.0 0.0 0.00 0.00 0.00 1015.0
20141020230449 75 238 4.0 0.0 0.00 0.00 0.00 1015.0
20141020230349 74 253 10.0 0.0 0.00 0.00 0.00 1015.0
20141020230149 74 267 8.0 0.0 0.00 0.00 0.00 1015.0
20141020230049 74 274 7.0 0.0 0.00 0.00 0.00 1015.0
20141020225949 74 294 8.0 0.0 0.00 0.00 0.00 1015.0
20141020225849 74 245 5.0 0.0 0.00 0.00 0.00 1015.0
20141020225749 75 287 10.0 0.0 0.00 0.00 0.00 1015.0
20141020225549 74 270 6.0 0.0 0.00 0.00 0.00 1015.0
20141020225449 74 231 8.0 0.0 0.00 0.00 0.00 1015.1
20141020225350 73 277 9.0 0.0 0.00 0.00 0.00 1015.1
20141020225249 73 288 10.0 0.0 0.00 0.00 0.00 1015.1
20141020225149 74 271 10.0 0.0 0.00 0.00 0.00 1015.1
20141020225049 74 280 9.0 0.0 0.00 0.00 0.00 1015.1
20141020224949 73 273 10.0 0.0 0.00 0.00 0.00 1015.1
20141020224849 73 264 8.0 0.0 0.00 0.00 0.00 1015.2
20141020224749 73 252 5.0 0.0 0.00 0.00 0.00 1015.2
20141020224549 74 263 11.0 0.0 0.00 0.00 0.00 1015.2
20141020224449 74 281 9.0 0.0 0.00 0.00 0.00 1015.2
20141020224349 75 270 10.0 0.0 0.00 0.00 0.00 1015.2
20141020223949 74 283 10.0 0.0 0.00 0.00 0.00 1015.3
20141020223549 75 271 11.0 0.0 0.00 0.00 0.00 1015.3
20141020223449 75 281 9.0 0.0 0.00 0.00 0.00 1015.3
20141020223349 75 271 11.0 0.0 0.00 0.00 0.00 1015.2
20141020223249 74 253 6.0 0.0 0.00 0.00 0.00 1015.2
20141020223150 74 284 9.0 0.0 0.00 0.00 0.00 1015.2
20141020223049 74 285 10.0 0.0 0.00 0.00 0.00 1015.2
20141020222949 74 259 7.0 0.0 0.00 0.00 0.00 1015.2
20141020222749 75 281 8.0 0.0 0.00 0.00 0.00 1015.2
20141020222649 75 288 10.0 0.0 0.00 0.00 0.00 1015.2
20141020222549 75 266 8.0 0.0 0.00 0.00 0.00 1015.2
20141020222450 75 284 7.0 0.0 0.00 0.00 0.00 1015.2
20141020222349 76 250 9.0 0.0 0.00 0.00 0.00 1015.2
20141020222249 75 291 10.0 0.0 0.00 0.00 0.00 1015.1
20141020222149 75 273 8.0 0.0 0.00 0.00 0.00 1015.1
20141020222049 75 280 8.0 0.0 0.00 0.00 0.00 1015.2
20141020221949 75 280 9.0 0.0 0.00 0.00 0.00 1015.2
20141020221849 75 287 8.0 0.0 0.00 0.00 0.00 1015.1
20141020221549 75 287 9.0 0.0 0.00 0.00 0.00 1015.2
20141020221449 75 285 9.0 0.0 0.00 0.00 0.00 1015.2
20141020221349 75 290 5.0 0.0 0.00 0.00 0.00 1015.2
20141020221250 75 301 10.0 0.0 0.00 0.00 0.00 1015.2
20141020221149 75 285 9.0 0.0 0.00 0.00 0.00 1015.2
20141020221049 75 276 6.0 0.0 0.00 0.00 0.00 1015.2